Hourly Data Report for July 14, 2021

IQALUIT CLIMATE
NUNAVUT
Current Station Operator: ECCC - MSC

63°44'50.000" N
68°32'40.000" W
33.50 m
2402592
71321
XFB

Download Data

Hourly Data (July 2021)
Hourly Data Report for July 14, 2021
TIME
LST
Temp Definition
°C
Dew Point Definition
°C
Rel Hum Definition
%
Precip. Amount Definition
mm

Wind Dir Definition
10's deg

Wind Spd Definition
km/h
Visibility Definition
km
Stn Press Definition
kPa
Hmdx Definition


Wind Chill Definition


Weather Definition


00:00 6.8 5.7 93 0.0 32 14   100.02     LegendNANA
01:00 6.8 5.8 93 0.0 32 12   100.09     LegendNANA
02:00 6.7 5.9 95 0.0 30 11   100.13     LegendNANA
03:00 6.3 4.9 91 0.0 32 17   100.20     LegendNANA
04:00 6.5 5.2 91 0.0 32 9   100.25     LegendNANA
05:00 6.9 5.3 89 0.0 29 9   100.31     LegendNANA
06:00 7.6 6.0 90 0.0 26 5   100.37     LegendNANA
07:00 7.8 5.9 87 0.0 24 7   100.44     LegendNANA
08:00 8.7 6.4 86 0.0 26 6   100.46     LegendNANA
09:00 7.8 5.8 87 0.0 18 6   100.50     LegendNANA
10:00 9.0 6.3 83 0.0 14 5   100.50     LegendNANA
11:00 10.5 6.7 77 0.0 22 10   100.49     LegendNANA
12:00 9.6 6.9 83 0.0 14 7   100.50     LegendNANA
13:00 9.4 7.2 86 0.0 14 8   100.52     LegendNANA
14:00 9.3 6.4 82 0.0 14 6   100.56     LegendNANA
15:00 9.3 6.2 81 0.0 13 5   100.60     LegendNANA
16:00 9.9 6.2 78 0.0 15 3   100.60     LegendNANA
17:00 10.8 6.3 74 0.0 13 4   100.62     LegendNANA
18:00 9.4 5.7 78 0.0 13 5   100.65     LegendNANA
19:00 11.0 5.6 70 0.0 7 2   100.67     LegendNANA
20:00 10.0 5.6 74 0.0 29 4   100.71     LegendNANA
21:00 9.4 5.9 79 0.0 33 7   100.69     LegendNANA
22:00 8.2 5.6 83 0.0 1 3   100.70     LegendNANA
23:00 6.7 4.4 85 0.0 34 4   100.73     LegendNANA

Notes on Data Quality.

Legend

  • E = Estimated
  • M = Missing
  • NA = Not Available*
  • [empty] = Indicates an unobserved value
Date modified: